QPF
0.01 0.01 0.00 0.00 0.00 0.00 0.00 0.00 0.00 0.00 0.00 0.00 0.00 0.01 0.01 0.00 0.00 0.00 0.01 0.01 0.01 0.01 0.01 0.01 0.01 0.00 0.00 0.00 0.02 0.03 0.02 0.02 0.04 0.04 0.06 0.10 0.12 0.11 0.11 0.15 0.14 0.09 0.08 0.06
0.01 0.01 0.00 0.00 0.00 0.00 0.00 0.00 0.00 0.00 0.00 0.00 0.00 0.00 0.01 0.01 0.00 0.00 0.00 0.00 0.01 0.01 0.00 0.00 0.01 0.01 0.00 0.00 0.01 0.02 0.02 0.01 0.02 0.03 0.05 0.06 0.10 0.12 0.11 0.11 0.13 0.11 0.08 0.07
0.01 0.00 0.00 0.00 0.00 0.00 0.00 0.00 0.00 0.00 0.00 0.00 0.00 0.00 0.00 0.01 0.00 0.00 0.00 0.00 0.00 0.00 0.00 0.00 0.00 0.00 0.00 0.00 0.00 0.02 0.01 0.01 0.01 0.02 0.04 0.05 0.06 0.10 0.10 0.08 0.09 0.10 0.10 0.08
0.01 0.00 0.00 0.00 0.00 0.00 0.00 0.00 0.00 0.00 0.00 0.00 0.00 0.00 0.00 0.00 0.00 0.00 0.00 0.00 0.00 0.00 0.00 0.00 0.00 0.00 0.00 0.00 0.00 0.01 0.01 0.00 0.01 0.01 0.03 0.05 0.05 0.06 0.07 0.07 0.06 0.07 0.08 0.08
0.01 0.01 0.00 0.00 0.01 0.00 0.00 0.00 0.00 0.00 0.00 0.00 0.00 0.00 0.00 0.00 0.00 0.00 0.00 0.00 0.00 0.00 0.00 0.00 0.00 0.00 0.00 0.00 0.00 0.00 0.01 0.00 0.00 0.01 0.02 0.03 0.04 0.04 0.04 0.05 0.05 0.05 0.06 0.06
0.00 0.01 0.00 0.00 0.00 0.01 0.00 0.00 0.00 0.00 0.01 0.00 0.00 0.00 0.00 0.00 0.00 0.00 0.00 0.00 0.00 0.00 0.00 0.00 0.00 0.00 0.00 0.00 0.00 0.00 0.00 0.01 0.01 0.01 0.01 0.01 0.02 0.03 0.03 0.03 0.03 0.04 0.04 0.04
0.00 0.01 0.00 0.00 0.00 0.01 0.01 0.01 0.01 0.01 0.01 0.00 0.00 0.00 0.00 0.00 0.00 0.00 0.00 0.00 0.00 0.00 0.00 0.00 0.00 0.00 0.00 0.00 0.00 0.00 0.00 0.01 0.02 0.02 0.01 0.01 0.01 0.02 0.02 0.03 0.03 0.03 0.03 0.03
0.00 0.00 0.00 0.00 0.00 0.01 0.01 0.01 0.01 0.01 0.01 0.00 0.00 0.00 0.00 0.01 0.00 0.00 0.00 0.00 0.00 0.00 0.00 0.00 0.00 0.00 0.00 0.00 0.00 0.00 0.00 0.01 0.01 0.02 0.01 0.01 0.01 0.02 0.02 0.02 0.02 0.03 0.03 0.03
0.01 0.00 0.00 0.00 0.00 0.00 0.01 0.01 0.01 0.02 0.01 0.01 0.00 0.00 0.01 0.01 0.00 0.00 0.00 0.00 0.00 0.00 0.00 0.00 0.00 0.00 0.00 0.00 0.00 0.00 0.00 0.01 0.01 0.02 0.02 0.01 0.02 0.02 0.02 0.02 0.02 0.02 0.02 0.02
0.01 0.01 0.00 0.00 0.00 0.01 0.01 0.01 0.02 0.02 0.03 0.02 0.01 0.01 0.01 0.00 0.00 0.00 0.00 0.00 0.00 0.00 0.00 0.00 0.00 0.00 0.00 0.00 0.00 0.00 0.00 0.01 0.01 0.01 0.01 0.01 0.01 0.01 0.01 0.01 0.02 0.03 0.03 0.02
0.01 0.01 0.01 0.00 0.01 0.01 0.00 0.01 0.02 0.02 0.03 0.02 0.01 0.01 0.01 0.00 0.01 0.00 0.00 0.00 0.00 0.00 0.00 0.00 0.00 0.00 0.00 0.00 0.00 0.00 0.00 0.00 0.00 0.00 0.00 0.01 0.00 0.00 0.00 0.01 0.01 0.01 0.02 0.02
0.00 0.01 0.00 0.00 0.00 0.01 0.01 0.01 0.01 0.02 0.02 0.01 0.01 0.01 0.01 0.01 0.01 0.00 0.00 0.00 0.00 0.00 0.00 0.00 0.00 0.00 0.00 0.00 0.00 0.00 0.00 0.00 0.00 0.00 0.00 0.00 0.00 0.00 0.00 0.00 0.01 0.01 0.00 0.01
0.00 0.01 0.01 0.00 0.00 0.00 0.01 0.01 0.01 0.02 0.02 0.02 0.01 0.01 0.01 0.01 0.01 0.00 0.00 0.00 0.00 0.00 0.00 0.00 0.00 0.00 0.00 0.01 0.00 0.00 0.01 0.01 0.00 0.00 0.00 0.00 0.00 0.00 0.00 0.00 0.00 0.00 0.00 0.00
0.01 0.01 0.01 0.00 0.00 0.01 0.00 0.00 0.00 0.01 0.02 0.01 0.01 0.01 0.01 0.01 0.01 0.00 0.00 0.00 0.00 0.00 0.00 0.00 0.00 0.00 0.01 0.00 0.00 0.00 0.00 0.00 0.00 0.00 0.00 0.00 0.00 0.00 0.00 0.00 0.00 0.00 0.00 0.00
0.01 0.01 0.00 0.00 0.00 0.00 0.00 0.00 0.00 0.01 0.01 0.01 0.01 0.01 0.01 0.01 0.01 0.00 0.00 0.00 0.00 0.00 0.00 0.00 0.01 0.01 0.01 0.01 0.00 0.00 0.00 0.00 0.00 0.00 0.00 0.00 0.00 0.00 0.00 0.00 0.00 0.00 0.00 0.00
0.02 0.02 0.01 0.00 0.00 0.00 0.01 0.01 0.00 0.00 0.00 0.00 0.00 0.01 0.01 0.01 0.01 0.01 0.00 0.00 0.00 0.00 0.00 0.00 0.01 0.01 0.01 0.00 0.00 0.00 0.00 0.00 0.00 0.00 0.00 0.00 0.00 0.00 0.00 0.00 0.00 0.00 0.00 0.00
0.01 0.01 0.01 0.01 0.00 0.01 0.01 0.01 0.01 0.01 0.01 0.01 0.01 0.01 0.01 0.01 0.01 0.01 0.01 0.00 0.00 0.00 0.00 0.00 0.00 0.00 0.00 0.00 0.00 0.00 0.00 0.00 0.00 0.00 0.00 0.00 0.00 0.00 0.00 0.00 0.00 0.00 0.00 0.00
0.02 0.02 0.02 0.01 0.01 0.01 0.01 0.00 0.00 0.01 0.01 0.01 0.01 0.01 0.01 0.01 0.01 0.01 0.01 0.00 0.00 0.00 0.00 0.00 0.01 0.00 0.00 0.00 0.00 0.00 0.00 0.00 0.00 0.00 0.00 0.00 0.00 0.00 0.00 0.00 0.00 0.00 0.00 0.01
0.01 0.02 0.03 0.02 0.01 0.01 0.00 0.00 0.00 0.01 0.01 0.00 0.00 0.00 0.00 0.01 0.01 0.01 0.01 0.01 0.01 0.00 0.01 0.01 0.01 0.01 0.01 0.01 0.00 0.00 0.00 0.00 0.00 0.00 0.00 0.00 0.01 0.01 0.00 0.00 0.01 0.01 0.01 0.01
0.01 0.02 0.03 0.02 0.02 0.01 0.00 0.00 0.00 0.00 0.00 0.00 0.00 0.00 0.00 0.01 0.01 0.01 0.01 0.01 0.01 0.01 0.00 0.00 0.00 0.01 0.01 0.00 0.00 0.00 0.00 0.00 0.00 0.00 0.00 0.00 0.01 0.01 0.00 0.00 0.01 0.01 0.01 0.01
0.02 0.03 0.04 0.02 0.02 0.01 0.00 0.00 0.00 0.01 0.00 0.00 0.00 0.00 0.00 0.01 0.01 0.01 0.00 0.00 0.00 0.00 0.00 0.00 0.01 0.01 0.01 0.00 0.00 0.00 0.00 0.00 0.00 0.00 0.00 0.00 0.01 0.01 0.01 0.01 0.01 0.01 0.01 0.01
0.01 0.02 0.02 0.01 0.02 0.01 0.00 0.00 0.00 0.00 0.00 0.00 0.00 0.00 0.00 0.00 0.00 0.00 0.00 0.00 0.00 0.00 0.00 0.00 0.01 0.01 0.01 0.01 0.01 0.00 0.00 0.00 0.00 0.00 0.00 0.00 0.01 0.01 0.01 0.01 0.01 0.01 0.01 0.02
0.00 0.01 0.01 0.01 0.01 0.00 0.00 0.00 0.00 0.00 0.00 0.00 0.00 0.00 0.00 0.00 0.00 0.00 0.00 0.00 0.00 0.00 0.00 0.00 0.01 0.02 0.01 0.01 0.01 0.01 0.00 0.01 0.01 0.01 0.01 0.00 0.01 0.01 0.01 0.01 0.01 0.01 0.02 0.02
0.00 0.00 0.01 0.01 0.00 0.00 0.00 0.00 0.00 0.00 0.00 0.00 0.00 0.00 0.00 0.00 0.00 0.00 0.00 0.00 0.00 0.00 0.00 0.00 0.01 0.02 0.02 0.02 0.01 0.01 0.01 0.01 0.01 0.01 0.01 0.00 0.00 0.01 0.00 0.01 0.01 0.01 0.02 0.03
0.00 0.00 0.00 0.00 0.00 0.00 0.00 0.00 0.00 0.00 0.00 0.00 0.00 0.00 0.00 0.00 0.00 0.00 0.00 0.00 0.00 0.00 0.00 0.01 0.01 0.02 0.03 0.02 0.02 0.01 0.01 0.01 0.01 0.01 0.00 0.00 0.01 0.01 0.00 0.00 0.01 0.01 0.02 0.03
0.00 0.00 0.00 0.00 0.00 0.00 0.00 0.00 0.00 0.00 0.00 0.00 0.00 0.00 0.00 0.00 0.00 0.00 0.00 0.00 0.00 0.00 0.00 0.01 0.01 0.02 0.03 0.03 0.03 0.02 0.02 0.02 0.01 0.01 0.00 0.00 0.00 0.00 0.00 0.01 0.00 0.01 0.01 0.03
MSLP
1016.65 1016.75 1016.71 1016.57 1016.35 1016.10 1015.85 1015.61 1015.39 1015.17 1014.92 1014.63 1014.27 1013.87 1013.42 1012.97 1012.54 1012.16 1011.86 1011.63 1011.48 1011.39 1011.34 1011.34 1011.38 1011.45 1011.58 1011.78 1012.04 1012.38 1012.78 1013.22 1013.68 1014.14 1014.58 1014.98 1015.33 1015.63 1015.89 1016.11 1016.32 1016.52 1016.71 1016.92
1016.69 1016.71 1016.61 1016.43 1016.20 1015.97 1015.78 1015.62 1015.49 1015.35 1015.15 1014.87 1014.48 1014.00 1013.45 1012.87 1012.30 1011.80 1011.39 1011.09 1010.89 1010.77 1010.71 1010.69 1010.71 1010.76 1010.85 1011.00 1011.23 1011.55 1011.97 1012.46 1012.99 1013.55 1014.10 1014.60 1015.03 1015.40 1015.68 1015.91 1016.10 1016.26 1016.43 1016.60
1016.60 1016.52 1016.34 1016.12 1015.90 1015.72 1015.62 1015.57 1015.56 1015.51 1015.38 1015.11 1014.69 1014.13 1013.45 1012.72 1012.00 1011.36 1010.84 1010.45 1010.20 1010.05 1009.98 1009.96 1009.97 1010.00 1010.07 1010.20 1010.41 1010.72 1011.15 1011.67 1012.28 1012.91 1013.55 1014.13 1014.64 1015.05 1015.36 1015.60 1015.77 1015.92 1016.06 1016.21
1016.41 1016.22 1015.96 1015.70 1015.50 1015.40 1015.40 1015.49 1015.60 1015.66 1015.59 1015.34 1014.88 1014.21 1013.40 1012.51 1011.64 1010.85 1010.20 1009.73 1009.42 1009.26 1009.19 1009.19 1009.21 1009.25 1009.31 1009.43 1009.63 1009.94 1010.37 1010.91 1011.55 1012.23 1012.92 1013.55 1014.11 1014.55 1014.88 1015.12 1015.29 1015.43 1015.56 1015.70
1016.20 1015.89 1015.55 1015.26 1015.09 1015.06 1015.18 1015.40 1015.64 1015.79 1015.78 1015.52 1015.00 1014.23 1013.28 1012.23 1011.19 1010.26 1009.50 1008.96 1008.61 1008.44 1008.40 1008.43 1008.48 1008.55 1008.64 1008.76 1008.96 1009.26 1009.68 1010.22 1010.86 1011.55 1012.24 1012.89 1013.45 1013.90 1014.24 1014.47 1014.64 1014.78 1014.91 1015.06
1016.03 1015.59 1015.18 1014.87 1014.73 1014.78 1015.00 1015.34 1015.67 1015.90 1015.91 1015.64 1015.04 1014.16 1013.07 1011.87 1010.69 1009.63 1008.79 1008.19 1007.83 1007.68 1007.68 1007.76 1007.87 1007.99 1008.11 1008.25 1008.45 1008.73 1009.13 1009.64 1010.24 1010.90 1011.57 1012.19 1012.72 1013.16 1013.47 1013.70 1013.87 1014.01 1014.15 1014.32
1015.92 1015.39 1014.92 1014.60 1014.49 1014.60 1014.91 1015.32 1015.72 1015.98 1015.98 1015.66 1014.99 1014.00 1012.78 1011.45 1010.16 1009.02 1008.11 1007.49 1007.15 1007.04 1007.10 1007.25 1007.44 1007.62 1007.78 1007.95 1008.14 1008.40 1008.76 1009.22 1009.76 1010.35 1010.95 1011.52 1012.00 1012.38 1012.67 1012.88 1013.03 1013.18 1013.34 1013.53
1015.89 1015.29 1014.79 1014.47 1014.39 1014.55 1014.90 1015.34 1015.76 1016.01 1015.98 1015.59 1014.84 1013.75 1012.44 1011.03 1009.66 1008.48 1007.56 1006.95 1006.65 1006.60 1006.73 1006.97 1007.23 1007.47 1007.67 1007.86 1008.05 1008.28 1008.59 1008.98 1009.44 1009.95 1010.47 1010.95 1011.36 1011.69 1011.93 1012.10 1012.24 1012.38 1012.54 1012.76
1015.93 1015.30 1014.80 1014.49 1014.42 1014.60 1014.96 1015.40 1015.79 1016.00 1015.90 1015.44 1014.61 1013.45 1012.08 1010.63 1009.25 1008.08 1007.19 1006.63 1006.39 1006.41 1006.62 1006.93 1007.25 1007.54 1007.78 1007.98 1008.16 1008.36 1008.61 1008.93 1009.31 1009.73 1010.16 1010.56 1010.90 1011.16 1011.34 1011.47 1011.57 1011.69 1011.84 1012.06
1016.00 1015.38 1014.89 1014.60 1014.55 1014.72 1015.06 1015.46 1015.79 1015.92 1015.74 1015.21 1014.31 1013.12 1011.74 1010.31 1008.97 1007.85 1007.03 1006.55 1006.39 1006.49 1006.76 1007.13 1007.49 1007.82 1008.07 1008.26 1008.42 1008.58 1008.78 1009.04 1009.35 1009.69 1010.04 1010.36 1010.63 1010.83 1010.96 1011.04 1011.10 1011.17 1011.30 1011.48
1016.05 1015.47 1015.01 1014.75 1014.70 1014.86 1015.15 1015.47 1015.71 1015.74 1015.48 1014.89 1013.96 1012.78 1011.44 1010.08 1008.83 1007.81 1007.10 1006.71 1006.63 1006.79 1007.11 1007.51 1007.89 1008.22 1008.47 1008.64 1008.77 1008.90 1009.05 1009.26 1009.51 1009.80 1010.09 1010.36 1010.58 1010.73 1010.81 1010.84 1010.84 1010.87 1010.93 1011.07
1016.05 1015.52 1015.10 1014.86 1014.81 1014.92 1015.14 1015.37 1015.50 1015.43 1015.10 1014.46 1013.54 1012.40 1011.14 1009.89 1008.78 1007.89 1007.30 1007.01 1007.01 1007.22 1007.57 1007.97 1008.35 1008.66 1008.88 1009.03 1009.13 1009.23 1009.35 1009.52 1009.74 1009.99 1010.26 1010.50 1010.68 1010.80 1010.85 1010.84 1010.79 1010.76 1010.76 1010.83
1015.98 1015.49 1015.11 1014.87 1014.79 1014.84 1014.96 1015.08 1015.10 1014.94 1014.54 1013.88 1012.99 1011.92 1010.79 1009.68 1008.73 1007.99 1007.53 1007.35 1007.41 1007.66 1008.02 1008.41 1008.76 1009.04 1009.23 1009.35 1009.43 1009.51 1009.61 1009.77 1009.97 1010.22 1010.47 1010.70 1010.88 1010.99 1011.02 1010.98 1010.91 1010.82 1010.76 1010.75
1015.83 1015.36 1014.98 1014.72 1014.58 1014.54 1014.56 1014.56 1014.46 1014.21 1013.76 1013.10 1012.25 1011.29 1010.29 1009.35 1008.56 1007.99 1007.65 1007.57 1007.70 1007.97 1008.34 1008.71 1009.04 1009.29 1009.47 1009.57 1009.64 1009.71 1009.81 1009.96 1010.17 1010.41 1010.67 1010.91 1011.10 1011.22 1011.26 1011.22 1011.13 1011.02 1010.91 1010.85
1015.61 1015.13 1014.71 1014.38 1014.15 1014.00 1013.89 1013.75 1013.54 1013.20 1012.71 1012.06 1011.28 1010.43 1009.58 1008.80 1008.18 1007.75 1007.55 1007.56 1007.74 1008.06 1008.43 1008.80 1009.13 1009.38 1009.55 1009.67 1009.75 1009.83 1009.94 1010.10 1010.31 1010.56 1010.83 1011.08 1011.29 1011.44 1011.50 1011.49 1011.42 1011.31 1011.19 1011.10
1015.34 1014.79 1014.29 1013.86 1013.50 1013.21 1012.94 1012.67 1012.34 1011.92 1011.39 1010.76 1010.05 1009.31 1008.60 1007.98 1007.51 1007.22 1007.13 1007.23 1007.49 1007.85 1008.25 1008.65 1009.01 1009.29 1009.51 1009.66 1009.78 1009.89 1010.03 1010.20 1010.42 1010.67 1010.94 1011.21 1011.44 1011.61 1011.72 1011.76 1011.73 1011.66 1011.57 1011.48
1015.03 1014.37 1013.74 1013.17 1012.65 1012.19 1011.77 1011.35 1010.90 1010.40 1009.85 1009.23 1008.59 1007.94 1007.35 1006.87 1006.54 1006.38 1006.40 1006.59 1006.92 1007.35 1007.82 1008.29 1008.72 1009.08 1009.38 1009.61 1009.79 1009.96 1010.12 1010.31 1010.53 1010.77 1011.03 1011.29 1011.53 1011.74 1011.90 1012.00 1012.04 1012.04 1012.00 1011.95
1014.67 1013.87 1013.09 1012.35 1011.65 1011.02 1010.43 1009.87 1009.32 1008.75 1008.16 1007.56 1006.97 1006.42 1005.93 1005.57 1005.35 1005.30 1005.42 1005.71 1006.13 1006.64 1007.21 1007.79 1008.33 1008.82 1009.23 1009.57 1009.85 1010.08 1010.28 1010.48 1010.68 1010.89 1011.12 1011.36 1011.60 1011.82 1012.02 1012.19 1012.32 1012.40 1012.44 1012.44
1014.26 1013.31 1012.36 1011.45 1010.59 1009.79 1009.05 1008.36 1007.71 1007.09 1006.48 1005.90 1005.35 1004.87 1004.47 1004.20 1004.08 1004.12 1004.33 1004.71 1005.23 1005.86 1006.55 1007.26 1007.95 1008.58 1009.14 1009.61 1009.99 1010.29 1010.53 1010.73 1010.90 1011.07 1011.25 1011.44 1011.65 1011.88 1012.11 1012.33 1012.53 1012.70 1012.82 1012.89
1013.78 1012.70 1011.60 1010.53 1009.52 1008.59 1007.73 1006.95 1006.23 1005.57 1004.96 1004.40 1003.90 1003.47 1003.15 1002.95 1002.90 1003.02 1003.32 1003.78 1004.40 1005.13 1005.95 1006.80 1007.64 1008.44 1009.15 1009.75 1010.23 1010.61 1010.88 1011.07 1011.20 1011.31 1011.42 1011.55 1011.71 1011.91 1012.15 1012.41 1012.66 1012.90 1013.09 1013.22
1013.21 1012.02 1010.82 1009.64 1008.53 1007.50 1006.57 1005.73 1004.99 1004.32 1003.72 1003.20 1002.75 1002.38 1002.11 1001.98 1001.99 1002.18 1002.54 1003.07 1003.77 1004.60 1005.53 1006.51 1007.49 1008.43 1009.27 1009.99 1010.56 1010.99 1011.28 1011.45 1011.54 1011.58 1011.61 1011.67 1011.77 1011.93 1012.15 1012.41 1012.69 1012.97 1013.20 1013.36
1012.54 1011.29 1010.03 1008.80 1007.64 1006.58 1005.63 1004.79 1004.06 1003.42 1002.87 1002.40 1002.00 1001.69 1001.49 1001.41 1001.48 1001.71 1002.12 1002.71 1003.46 1004.36 1005.37 1006.44 1007.52 1008.56 1009.49 1010.29 1010.93 1011.40 1011.69 1011.84 1011.88 1011.85 1011.81 1011.79 1011.82 1011.92 1012.10 1012.35 1012.62 1012.91 1013.15 1013.32
1011.76 1010.50 1009.24 1008.01 1006.87 1005.84 1004.93 1004.14 1003.46 1002.89 1002.41 1002.02 1001.70 1001.46 1001.32 1001.30 1001.42 1001.69 1002.13 1002.74 1003.53 1004.45 1005.50 1006.61 1007.73 1008.81 1009.79 1010.62 1011.28 1011.76 1012.04 1012.16 1012.16 1012.08 1011.97 1011.88 1011.85 1011.90 1012.03 1012.23 1012.47 1012.73 1012.96 1013.11
1010.87 1009.64 1008.43 1007.27 1006.20 1005.25 1004.43 1003.74 1003.17 1002.70 1002.32 1002.02 1001.79 1001.64 1001.58 1001.62 1001.79 1002.09 1002.55 1003.17 1003.95 1004.86 1005.89 1006.97 1008.08 1009.14 1010.10 1010.92 1011.57 1012.03 1012.29 1012.39 1012.35 1012.24 1012.09 1011.95 1011.87 1011.86 1011.94 1012.09 1012.29 1012.50 1012.69 1012.81
1009.86 1008.71 1007.59 1006.54 1005.59 1004.77 1004.08 1003.52 1003.08 1002.74 1002.48 1002.30 1002.19 1002.14 1002.17 1002.28 1002.50 1002.84 1003.30 1003.91 1004.65 1005.52 1006.48 1007.49 1008.52 1009.50 1010.39 1011.15 1011.75 1012.17 1012.41 1012.49 1012.44 1012.32 1012.15 1012.00 1011.89 1011.85 1011.88 1011.99 1012.13 1012.29 1012.42 1012.49
1008.75 1007.69 1006.69 1005.78 1004.98 1004.32 1003.78 1003.38 1003.09 1002.89 1002.78 1002.73 1002.74 1002.81 1002.94 1003.14 1003.42 1003.79 1004.27 1004.86 1005.55 1006.33 1007.19 1008.09 1008.99 1009.85 1010.63 1011.30 1011.82 1012.19 1012.40 1012.47 1012.44 1012.33 1012.19 1012.05 1011.94 1011.89 1011.90 1011.97 1012.06 1012.16 1012.24 1012.28
Thickness
5569 5560 5557 5562 5566 5568 5566 5564 5564 5568 5574 5572 5571 5574 5578 5580 5578 5578 5578 5579 5580 5583 5585 5586 5588 5590 5592 5593 5595 5597 5599 5601 5602 5604 5607 5608 5610 5612 5613 5614 5614 5615 5616 5615
5552 5550 5559 5562 5562 5561 5559 5554 5552 5558 5564 5563 5560 5563 5569 5572 5573 5573 5573 5573 5574 5575 5576 5578 5580 5582 5583 5584 5586 5588 5590 5592 5594 5596 5598 5599 5601 5602 5603 5604 5604 5605 5606 5606
5548 5550 5556 5556 5552 5552 5547 5544 5544 5546 5550 5553 5550 5552 5558 5565 5567 5567 5567 5568 5567 5569 5569 5570 5571 5573 5574 5575 5577 5580 5580 5583 5585 5587 5588 5589 5590 5591 5592 5593 5594 5595 5596 5596
5539 5544 5547 5545 5542 5544 5540 5543 5542 5540 5533 5528 5536 5530 5549 5553 5555 5558 5556 5556 5557 5560 5560 5561 5562 5563 5564 5565 5567 5569 5570 5573 5575 5577 5579 5580 5579 5580 5581 5582 5584 5585 5586 5587
5530 5535 5536 5535 5536 5537 5534 5537 5534 5531 5523 5517 5522 5518 5535 5542 5545 5548 5547 5547 5550 5551 5552 5552 5552 5554 5554 5555 5556 5558 5560 5562 5564 5566 5568 5569 5570 5571 5571 5572 5574 5575 5576 5576
5524 5529 5529 5530 5532 5532 5529 5525 5521 5511 5506 5506 5516 5511 5523 5526 5536 5538 5539 5540 5541 5542 5543 5543 5543 5543 5544 5544 5546 5548 5549 5551 5554 5556 5558 5559 5560 5561 5561 5562 5563 5564 5565 5566
5514 5518 5521 5523 5521 5520 5517 5507 5497 5494 5490 5501 5511 5509 5517 5527 5530 5530 5531 5531 5532 5532 5531 5532 5533 5534 5534 5534 5535 5537 5539 5540 5543 5545 5547 5549 5550 5551 5552 5553 5553 5554 5554 5555
5502 5504 5510 5512 5511 5507 5507 5502 5492 5488 5485 5489 5500 5501 5512 5519 5521 5522 5523 5522 5522 5521 5520 5522 5523 5523 5524 5525 5525 5527 5529 5530 5532 5534 5536 5538 5540 5541 5542 5543 5544 5544 5544 5545
5493 5496 5503 5505 5505 5503 5499 5492 5494 5482 5476 5477 5485 5494 5506 5513 5511 5510 5510 5511 5510 5510 5511 5511 5512 5512 5513 5514 5515 5517 5518 5519 5521 5522 5525 5527 5528 5530 5531 5533 5533 5534 5534 5534
5488 5483 5490 5495 5497 5496 5493 5488 5479 5475 5473 5477 5482 5485 5493 5500 5501 5501 5499 5499 5500 5500 5500 5500 5501 5501 5502 5503 5504 5505 5507 5508 5510 5512 5514 5516 5517 5518 5519 5521 5522 5523 5523 5523
5482 5473 5475 5480 5479 5481 5482 5479 5473 5466 5465 5467 5472 5487 5497 5495 5495 5492 5490 5489 5489 5489 5488 5489 5489 5490 5490 5491 5492 5494 5495 5497 5498 5500 5502 5504 5506 5507 5507 5508 5510 5511 5512 5512
5471 5460 5457 5465 5472 5474 5475 5473 5465 5463 5459 5454 5454 5475 5492 5487 5486 5484 5481 5481 5480 5479 5478 5478 5478 5478 5479 5480 5481 5482 5484 5485 5487 5488 5490 5492 5494 5495 5496 5496 5498 5499 5500 5500
5464 5453 5451 5460 5462 5461 5462 5463 5458 5452 5447 5441 5449 5472 5481 5475 5476 5475 5473 5471 5470 5469 5469 5467 5467 5467 5468 5469 5469 5471 5472 5473 5475 5476 5478 5479 5482 5483 5484 5484 5485 5487 5487 5488
5459 5444 5448 5458 5461 5454 5452 5453 5450 5446 5440 5440 5447 5462 5471 5468 5466 5465 5463 5462 5460 5460 5459 5458 5457 5456 5457 5457 5458 5459 5460 5462 5464 5465 5466 5468 5470 5471 5472 5473 5473 5474 5475 5475
5450 5439 5439 5443 5448 5445 5446 5448 5444 5441 5440 5442 5451 5453 5464 5461 5458 5456 5455 5453 5452 5452 5451 5450 5448 5447 5447 5447 5448 5449 5450 5451 5452 5453 5455 5457 5458 5460 5461 5461 5461 5461 5462 5463
5435 5431 5431 5434 5441 5439 5441 5444 5441 5441 5440 5439 5442 5448 5458 5453 5449 5447 5447 5447 5445 5444 5443 5442 5441 5439 5438 5438 5439 5439 5440 5440 5441 5442 5444 5445 5446 5448 5449 5449 5449 5449 5449 5450
5425 5423 5424 5427 5428 5433 5434 5443 5440 5439 5436 5438 5442 5452 5450 5446 5445 5444 5443 5441 5440 5438 5436 5434 5432 5431 5430 5429 5430 5430 5431 5431 5430 5431 5433 5434 5435 5436 5437 5437 5437 5437 5437 5437
5420 5417 5411 5413 5417 5421 5449 5445 5441 5439 5440 5437 5442 5444 5444 5444 5442 5439 5437 5434 5433 5431 5429 5427 5425 5423 5422 5421 5420 5420 5420 5420 5421 5421 5422 5423 5424 5425 5425 5425 5425 5426 5426 5425
5418 5415 5406 5401 5404 5421 5440 5442 5436 5433 5439 5440 5437 5439 5437 5435 5433 5432 5432 5429 5427 5425 5422 5419 5417 5414 5413 5411 5410 5410 5410 5411 5411 5412 5412 5413 5413 5413 5414 5415 5415 5415 5415 5415
5410 5408 5402 5395 5403 5416 5442 5441 5437 5435 5434 5440 5435 5433 5430 5428 5422 5426 5427 5422 5419 5417 5414 5411 5409 5406 5404 5403 5401 5400 5401 5401 5401 5403 5403 5403 5403 5403 5404 5404 5404 5404 5404 5405
5400 5397 5396 5394 5396 5415 5433 5431 5430 5427 5437 5440 5433 5430 5426 5422 5422 5423 5419 5415 5412 5409 5406 5404 5401 5399 5397 5395 5393 5392 5392 5392 5393 5393 5393 5393 5394 5394 5395 5394 5394 5394 5394 5394
5398 5392 5388 5388 5393 5416 5429 5422 5424 5432 5434 5433 5429 5425 5421 5418 5416 5414 5411 5408 5405 5401 5399 5396 5393 5391 5390 5387 5385 5384 5384 5385 5384 5384 5384 5384 5385 5385 5386 5385 5384 5384 5383 5383
5397 5404 5401 5404 5419 5425 5420 5422 5425 5424 5424 5425 5421 5418 5415 5411 5408 5406 5403 5400 5397 5395 5392 5390 5387 5384 5382 5380 5378 5377 5377 5376 5375 5374 5374 5375 5376 5376 5376 5375 5374 5374 5373 5373
5397 5400 5399 5401 5412 5417 5416 5416 5418 5417 5418 5418 5415 5411 5408 5404 5401 5398 5395 5393 5390 5388 5386 5383 5380 5377 5376 5374 5372 5370 5369 5368 5367 5366 5366 5367 5367 5367 5366 5366 5366 5365 5365 5364
5401 5395 5395 5400 5409 5410 5415 5414 5415 5414 5412 5410 5408 5405 5402 5398 5395 5392 5389 5386 5384 5382 5380 5377 5374 5371 5369 5367 5365 5363 5362 5360 5359 5358 5358 5359 5359 5358 5357 5357 5357 5357 5357 5357
5398 5398 5399 5411 5415 5411 5416 5415 5411 5408 5406 5404 5401 5398 5396 5393 5390 5387 5383 5381 5378 5375 5373 5370 5367 5365 5363 5360 5358 5357 5355 5354 5352 5352 5351 5350 5350 5349 5349 5348 5348 5349 5349 5350